Showing default

LARES-2, 53105

Orbit data source: Space-Track

LARES-2, 53105 is a payload satellite owned by ASI (IT) that was launched on Wed, 13 Jul 2022 UTC via a VEGA C launch vehicle from the French Guiana (FRGUI). Payload-class satellites include a variety of spacecraft equipped with specific instruments for various scientific and technological missions. These include communications satellites like Starlink; space stations such as the ISS; scientific satellites like the Hubble; Earth observation satellites from companies like Planet Labs, Umbra, and HawkEye 360; GPS; miniature CubeSats for education and research; and military/defense satellites.

Loading next visibility...
Identifier
53105, 2022-080A
Orbit
Active
Last TLE update
1 day ago
Origin
Manufacturer
OHB-I
Mission
Operational Civil Technology
Bus & Motor
LARES, Unknown motor
Mass
295 kg wet, 295 kg dry
Launch date (UTC)
2022-07-13 (3 years ago)
Launch vehicle
VEGA C
Launch site
French Guiana (FRGUI)
Object type
Payload
Rocket body
Debris
Shape & HBR
Sphere, 0.42 m
Radar Cross Section
0.139 m², Medium (>0.1 m² and < 1m²)

Expand to show TLE details & history

TLE from 1 day ago
0 LARES-2
1 53105U 22080A   25190.86499861 -.00000003  00000-0  00000-0 0  9998
2 53105  70.1534  62.7135 0005008  49.1742 310.9525  6.38965183 69795
Epoch: 2025-07-09T20:45Z
TLE epoch observation values (Epoch: 2025-07-09T20:45:35.879Z)
Latitude
0.00004°
Longitude
-176.71973°
Altitude
5,886.56 km
Speed
5.702 km/s
True Right ascension
04h 10m 52s
True Declination
0° 00' 00"
Sunlit
Object was in daylight at epoch
Visualization orbit readout
Latitude
59.25648°
Longitude
-34.43581°
Altitude
5,896.032 km
Speed
5.703 km/s
Apparent Right ascension
11h 16m 58s
Apparent Declination
37° 44' 05"
Sunlit
Object is in daylight
Visualization observer readout
Local Sidereal Time
20:02:48
Azimuth
323.649° NNW
Elevation
-0.509°
Doppler factor
1
Orbital elements
Apogee altitude
5,894.178 km
Perigee altitude
5,881.893 km
Semi-major axis
12,266.173 km
Eccentricity
0.0005
Inclination
70.1534°
RAAN
62.7135°
Arg. of periapsis
49.1742°
True anomaly
Unknown
Mean anomaly
310.9525°
Eccentric anomaly
Unknown
Mean motion
1.59764 °/min
Orbital period
225.33 mins
BSTAR
0
Loading maneuver chart data...
Loading SW <> Apogee altitude chart data...
Loading historical data...
Loading historical data...
Loading historical data...
Loading historical data...
Loading historical data...
Loading historical data...
Loading historical data...

LARES-2 Visibility forecast

Observer location: undefined°, undefined°

Span
Click to sort rows by Start time (UTC) header in descending order
Start Az.
Max El. time (UTC)
Max El. Az.
Max El.
End time (UTC)
End Az.
51 mins2025-07-11 14:03:22.642Z144.236° SSE2025-07-11 14:29:22.642Z85.335° E31.428°2025-07-11 14:54:22.642Z29.752° NE
63 mins2025-07-11 17:51:22.642Z223.149° SW2025-07-11 18:21:22.642Z302.576° NW41.736°2025-07-11 18:54:22.642Z30.854° NE
58 mins2025-07-11 22:10:22.642Z307.509° NW2025-07-11 22:39:22.642Z15.437° NNE30.473°2025-07-11 23:08:22.642Z83.514° E
62 mins2025-07-12 02:16:22.642Z333.693° NNW2025-07-12 02:47:22.642Z235.888° WSW44.938°2025-07-12 03:18:22.642Z166.839° S
26 mins2025-07-12 06:19:22.642Z316.143° NNW2025-07-12 06:32:22.642Z289.207° WNW15.033°2025-07-12 06:45:22.642Z262.348° W
|